Torna al catalogo

STARLINK-3907

AttivoComunicazioniVLEO
NORAD 52501·PAYLOAD·🇺🇸 United States

Lanciato May 6, 2022 da Cape Canaveral Space Force Station

Loading…

Prossimi Passaggi (prossime 24 ore)

TLE

AggiornatoSource: CelesTrak SupGP

Epoca: Sep 14, 2026, 21:03 UTC

1 52501C 22049BC  26257.87756944  .00040253  00000+0  12217-2 0  2577
2 52501  53.1574 270.3360 0001290  85.2410 244.5216 15.33521711    17

Traccia STARLINK-3907 in tempo reale con AllMySat

Download on the App Store